CDT,Max TemperatureF,Mean TemperatureF,Min TemperatureF,Max Dew PointF,MeanDew PointF,Min DewpointF,Max Humidity, Mean Humidity, Min Humidity, Max Sea Level PressureIn, Mean Sea Level PressureIn, Min Sea Level PressureIn, Max VisibilityMiles, Mean VisibilityMiles, Min VisibilityMiles, Max Wind SpeedMPH, Mean Wind SpeedMPH, Max Gust SpeedMPH,PrecipitationIn, CloudCover, Events, WindDirDegrees
2012-10-1,55,50,46,46,43,43,87,71,63,29.93,29.88,29.85,10,10,10,14,7,21,0.00,1,,313
2012-10-2,68,49,30,37,34,28,93,47,26,29.96,29.85,29.77,10,10,10,21,9,25,0.00,0,,170
2012-10-3,73,55,37,43,39,34,93,55,29,29.92,29.88,29.83,10,9,2,10,6,,0.00,1,,63
2012-10-4,53,43,33,43,35,28,87,72,58,29.93,29.78,29.60,10,10,3,21,11,34,0.00,6,Thunderstorm,266
2012-10-5,35,34,33,30,28,25,87,79,65,30.11,29.98,29.92,10,9,1,21,17,33,0.00,8,,293
2012-10-6,42,35,28,30,24,18,87,66,39,30.26,30.19,30.11,10,10,4,17,12,22,0.00,6,,319
2012-10-7,50,40,30,25,21,19,80,52,30,30.14,29.95,29.78,10,10,10,15,8,22,0.00,0,,207
2012-10-8,44,40,35,43,30,21,93,68,52,29.77,29.62,29.51,10,10,6,18,10,23,0.03,7,,188
2012-10-9,42,38,32,37,32,28,87,78,65,29.91,29.72,29.62,10,10,4,20,9,30,0.00,5,,275
2012-10-10,44,38,32,32,27,21,87,69,42,29.99,29.94,29.90,10,9,2,12,8,20,0.08,7,,278
2012-10-11,39,34,28,32,25,19,93,71,45,30.35,30.11,29.89,10,9,1,20,6,28,0.04,5,,305
2012-10-12,44,32,19,27,20,14,100,60,31,30.39,30.25,29.96,10,10,10,18,6,24,0.00,2,,166
2012-10-13,48,40,33,41,32,18,100,66,34,29.95,29.78,29.70,10,9,0,15,9,22,0.00,7,,149
2012-10-14,55,44,33,43,35,30,100,76,47,29.87,29.83,29.79,10,6,0,14,4,17,0.00,6,,334
2012-10-15,55,40,26,37,32,25,100,64,44,29.92,29.83,29.66,10,10,0,15,4,21,0.00,3,,168
2012-10-16,68,57,46,46,43,34,87,67,46,29.65,29.49,29.36,10,10,10,16,9,23,0.00,3,,163
2012-10-17,55,50,44,48,45,41,93,85,72,29.36,29.20,29.07,10,9,3,13,7,20,0.00,6,,148
2012-10-18,48,46,44,45,43,39,93,88,81,29.41,29.23,29.16,10,8,1,13,4,,0.05,8,,230
2012-10-19,51,43,35,46,41,34,93,80,54,29.73,29.61,29.41,10,10,3,9,4,,0.02,7,,49
2012-10-20,53,42,32,39,36,30,100,77,51,29.78,29.74,29.72,10,10,7,13,5,17,0.00,5,,167
2012-10-21,59,50,41,45,41,37,93,75,48,29.97,29.85,29.78,10,8,4,13,5,,0.00,6,,132
2012-10-22,51,48,44,46,41,39,93,78,62,30.09,30.03,29.97,10,10,10,13,8,18,0.00,6,,53
2012-10-23,50,46,44,48,44,39,100,90,76,29.96,29.81,29.72,10,6,2,12,8,21,0.02,8,,123
2012-10-24,53,46,39,52,44,36,94,87,81,29.91,29.85,29.75,10,9,1,20,8,23,0.00,8,,316
2012-10-25,39,36,32,34,29,25,93,80,65,29.97,29.86,29.79,10,8,1,20,15,24,0.01,8,,312
2012-10-26,35,32,28,27,21,18,80,63,52,30.25,30.17,29.98,10,10,10,18,11,25,0.00,8,,272
2012-10-27,33,30,28,25,20,18,86,66,52,30.30,30.27,30.23,10,10,7,10,5,17,0.00,7,,267
2012-10-28,32,30,28,30,26,21,93,87,69,30.31,30.28,30.27,10,7,1,8,3,,0.02,8,,42
2012-10-29,42,37,32,30,26,21,93,68,42,30.30,30.28,30.26,10,9,5,10,6,,0.00,7,,129
2012-10-30,42,33,24,28,22,18,93,70,36,30.28,30.20,30.09,10,10,1,6,3,,0.00,1,,68
2012-10-31,46,32,19,21,19,12,93,64,25,30.09,30.00,29.92,10,10,10,9,3,,0.00,3,,326